Location: Eferding
(48.3167°N, 14.0167°E)
Time: 02:32:08
(UTC+00:00)

AQUARIUS - Pass Details

Date: 12 November 2019
Orbit: 650 x 652 km, 98.0° (Epoch: 09 December)

Event Time Altitude Azimuth Distance (km) Brightness Sun altitude
Rises 16:09:59 0° 157° (SSE) 2,963 7.5 -7.0°
Reaches altitude 10° 16:12:12 10° 154° (SSE) 2,056 6.7 -7.4°
Maximum altitude 16:16:38 67° 73° (ENE) 714 4.1 -8.1°
Drops below altitude 10° 16:21:08 10° 351° (N) 2,072 6.7 -8.8°
Sets 16:23:22 0° 349° (N) 2,988 7.5 -9.2°
